TimeCST,TemperatureF,Dew PointF,Humidity,Sea Level PressureIn,VisibilityMPH,Wind Direction,Wind SpeedMPH,Gust SpeedMPH,PrecipitationIn,Events,Conditions,WindDirDegrees,DateUTC
12:53 AM,24.1,16.0,71,30.21,10.0,NNW,11.5,-,N/A,,Overcast,330,2011-11-20 06:53:00
1:53 AM,23.0,16.0,74,30.22,10.0,North,8.1,-,N/A,,Overcast,350,2011-11-20 07:53:00
2:53 AM,21.9,15.1,75,30.24,10.0,North,8.1,-,N/A,,Overcast,360,2011-11-20 08:53:00
3:20 AM,21.2,15.8,80,30.21,10.0,North,5.8,-,N/A,,Overcast,10,2011-11-20 09:20:00
3:29 AM,21.2,15.8,80,30.21,10.0,North,6.9,-,N/A,,Overcast,360,2011-11-20 09:29:00
3:53 AM,21.0,14.0,74,30.25,10.0,North,3.5,-,N/A,,Overcast,350,2011-11-20 09:53:00
4:53 AM,21.0,15.1,78,30.27,10.0,Calm,Calm,-,N/A,,Overcast,0,2011-11-20 10:53:00
6:53 AM,21.0,15.1,78,30.30,10.0,NNE,4.6,-,N/A,,Overcast,30,2011-11-20 12:53:00
7:53 AM,19.9,12.9,74,30.34,10.0,NE,4.6,-,N/A,,Overcast,50,2011-11-20 13:53:00
8:53 AM,19.9,12.9,74,30.38,10.0,North,4.6,-,N/A,,Overcast,10,2011-11-20 14:53:00
9:53 AM,21.9,15.1,75,30.40,10.0,Calm,Calm,-,N/A,,Overcast,0,2011-11-20 15:53:00
10:53 AM,23.0,16.0,74,30.41,10.0,Calm,Calm,-,N/A,,Overcast,0,2011-11-20 16:53:00
11:53 AM,23.0,15.1,72,30.40,10.0,NNW,6.9,-,N/A,,Overcast,330,2011-11-20 17:53:00
12:53 PM,25.0,16.0,69,30.38,10.0,Calm,Calm,-,N/A,,Partly Cloudy,0,2011-11-20 18:53:00
1:53 PM,27.0,17.1,66,30.36,10.0,Calm,Calm,-,N/A,,Clear,0,2011-11-20 19:53:00
2:22 PM,26.6,15.8,64,30.32,10.0,Calm,Calm,-,N/A,,Mostly Cloudy,0,2011-11-20 20:22:00
2:48 PM,24.8,15.8,69,30.31,10.0,Calm,Calm,-,N/A,,Scattered Clouds,0,2011-11-20 20:48:00
2:53 PM,25.0,15.1,66,30.36,10.0,Calm,Calm,-,N/A,,Scattered Clouds,0,2011-11-20 20:53:00
3:53 PM,26.1,16.0,66,30.36,10.0,Calm,Calm,-,N/A,,Clear,0,2011-11-20 21:53:00
4:40 PM,21.2,15.8,80,30.32,10.0,SSE,3.5,-,N/A,,Mostly Cloudy,160,2011-11-20 22:40:00
4:53 PM,21.9,15.1,75,30.36,10.0,ESE,4.6,-,N/A,,Mostly Cloudy,120,2011-11-20 22:53:00
5:53 PM,19.0,12.9,77,30.37,10.0,SE,6.9,-,N/A,,Clear,130,2011-11-20 23:53:00
6:53 PM,17.1,12.9,84,30.37,10.0,SSE,5.8,-,N/A,,Clear,150,2011-11-21 00:53:00
8:53 PM,19.0,15.1,85,30.34,8.0,ESE,5.8,-,N/A,,Clear,120,2011-11-21 02:53:00
9:53 PM,15.1,12.0,88,30.35,7.0,SSE,6.9,-,N/A,,Clear,150,2011-11-21 03:53:00
10:53 PM,16.0,12.0,84,30.34,8.0,SE,9.2,-,N/A,,Clear,140,2011-11-21 04:53:00
11:29 PM,17.6,14.0,86,30.30,8.0,SSE,8.1,-,N/A,,Scattered Clouds,150,2011-11-21 05:29:00
11:38 PM,17.6,15.8,93,30.31,8.0,SSE,5.8,-,N/A,,Mostly Cloudy,150,2011-11-21 05:38:00
11:53 PM,19.0,16.0,88,30.36,7.0,SSE,6.9,-,N/A,,Overcast,160,2011-11-21 05:53:00